Terug naar catalogus

STARLINK-6352

ActiefCommunicatieVLEO
NORAD 56782·PAYLOAD·🇺🇸 United States

Gelanceerd May 31, 2023 vanaf Vandenberg Space Force Base

Loading…

Volgende Passages (komende 24 uur)

TLE

VersSource: CelesTrak SupGP

Epoch: Sep 14, 2026, 22:13 UTC

1 56782C 23078R   26257.92618056  .00677050  00000+0  45775-1 0  2577
2 56782  70.0008 207.3613 0003066 269.8722 260.8193 15.06124006    13

Volg STARLINK-6352 in realtime met AllMySat

Download on the App Store